Weather History for LTBA - June, 2013

Change the Weather History Date:

Saturday, June 22, 2013

  Actual Average Record
Temperature  
Mean Temperature 76 °F -  
Max Temperature 84 °F 81 °F 91 °F (1999)
Min Temperature 69 °F 67 °F 60 °F (1998)
Cooling Degree Days 12    
Growing Degree Days 26 (Base 50)    
Moisture  
Dew Point 56 °F    
Average Humidity 51    
Maximum Humidity 78    
Minimum Humidity 22    
Precipitation  
Precipitation 0.00 in - - ()
Sea Level Pressure  
Sea Level Pressure 29.96 in    
Wind  
Wind Speed 10 mph ()    
Max Wind Speed 18 mph    
Max Gust Speed 25 mph    
Visibility 6.0 miles    
Events      
Averages and records for this station are not official NWS values.
T = Trace of Precipitation, MM = Missing Value Source: Averaged Metar Reports

Daily Weather History Graph

Daily Weather History Graph

Search for Another Location

Airport or City:

Trip Planner

Search our weather history database for the weather conditions in past years. The results will help you decide how hot, cold, wet, or windy it might be!

Date:

Astronomy

Jun. 22, 2013 Rise Set
Actual Time 5:33 AM EEST 8:40 PM EEST
Civil Twilight 4:59 AM EEST 9:14 PM EEST
Nautical Twilight 4:16 AM EEST 9:57 PM EEST
Astronomical Twilight 3:25 AM EEST 10:48 PM EEST
Moon 7:34 PM EEST (6/22) 4:26 AM EEST (6/22)
Length of Visible Light 16h 14m
Length of Day
15h 07m
Waxing Gibbous, 98% of the Moon is Illuminated
Jun 22
Waxing Gibbous
Jun 23
Full
Jun 30
Last Quarter
Jul 8
New
Jul 16
First Quarter

Hourly Weather History & Observations

Time (EEST) Temp. Heat Index Dew Point Humidity Pressure Visibility Wind Dir Wind Speed Gust Speed Precip Events Conditions
12:20 AM 71.6 °F - 62.6 °F 73% 30.01 in - ENE 10.4 mph - N/A   Clear
12:50 AM 71.6 °F - 62.6 °F 73% 30.01 in - ENE 9.2 mph - N/A   Clear
1:20 AM 73.4 °F - 64.4 °F 73% 30.01 in - ENE 10.4 mph - N/A   Clear
1:50 AM 71.6 °F - 62.6 °F 73% 29.98 in - ENE 9.2 mph - N/A   Clear
2:20 AM 71.6 °F - 62.6 °F 73% 29.98 in - ENE 9.2 mph - N/A   Clear
2:50 AM 71.6 °F - 62.6 °F 73% 29.98 in - NE 9.2 mph - N/A   Clear
3:00 AM 71 °F - 62 °F 65% 29.99 in 6 mi NE 9.2 mph - -  
3:20 AM 69.8 °F - 62.6 °F 78% 29.98 in - NE 10.4 mph - N/A   Clear
3:50 AM 69.8 °F - 60.8 °F 73% 29.98 in - NE 10.4 mph - N/A   Clear
4:20 AM 69.8 °F - 60.8 °F 73% 29.98 in - NE 9.2 mph - N/A   Clear
4:50 AM 69.8 °F - 60.8 °F 73% 29.95 in - NE 9.2 mph - N/A   Clear
5:20 AM 69.8 °F - 60.8 °F 73% 29.98 in - NE 8.1 mph - N/A   Clear
5:50 AM 69.8 °F - 60.8 °F 73% 29.98 in - NE 6.9 mph - N/A   Clear
6:20 AM 69.8 °F - 60.8 °F 73% 29.98 in - NE 8.1 mph - N/A   Clear
6:50 AM 71.6 °F - 60.8 °F 69% 29.98 in - NE 8.1 mph - N/A   Clear
7:20 AM 71.6 °F - 60.8 °F 69% 29.98 in - NE 10.4 mph - N/A   Clear
7:50 AM 73.4 °F - 60.8 °F 65% 29.98 in - NE 12.7 mph - N/A   Clear
8:20 AM 77.0 °F - 59.0 °F 54% 29.98 in - Variable 11.5 mph 25.3 mph N/A   Clear
8:50 AM 75.2 °F - 59.0 °F 57% 29.98 in - NE 13.8 mph - N/A   Clear
9:00 AM 76 °F - 57 °F 42% 29.99 in 6 mi NE 13.8 mph - -  
9:20 AM 77.0 °F - 57.2 °F 50% 29.98 in - ENE 12.7 mph - N/A   Clear
9:50 AM 77.0 °F - 55.4 °F 47% 29.98 in - ENE 12.7 mph - N/A   Clear
10:20 AM 78.8 °F - 53.6 °F 42% 29.98 in - NE 11.5 mph - N/A   Clear
10:50 AM 78.8 °F - 55.4 °F 44% 29.98 in - ENE 12.7 mph - N/A   Clear
11:20 AM 80.6 °F 80.5 °F 55.4 °F 42% 29.98 in - ENE 12.7 mph - N/A   Clear
11:50 AM 80.6 °F 80.3 °F 53.6 °F 39% 29.98 in - ENE 12.7 mph - N/A   Clear
12:20 PM 82.4 °F 81.4 °F 53.6 °F 37% 29.98 in - NE 11.5 mph - N/A   Clear
12:50 PM 80.6 °F 80.3 °F 53.6 °F 39% 29.98 in - NE 13.8 mph - N/A   Clear
1:20 PM 82.4 °F 81.7 °F 55.4 °F 39% 29.98 in - NNE 13.8 mph - N/A   Clear
1:50 PM 82.4 °F 81.4 °F 53.6 °F 37% 29.95 in - NE 13.8 mph - N/A   Clear
2:20 PM 84.2 °F 82.8 °F 53.6 °F 35% 29.95 in - NE 11.5 mph - N/A   Clear
2:50 PM 84.2 °F 82.8 °F 53.6 °F 35% 29.95 in - North 12.7 mph - N/A   Clear
3:00 PM 84 °F - 51 °F 22% 29.95 in 6 mi North 12.7 mph - -  
3:20 PM 82.4 °F - 51.8 °F 35% 29.95 in - NNE 12.7 mph - N/A   Clear
3:50 PM 82.4 °F - 48.2 °F 30% 29.95 in - Variable 13.8 mph - N/A   Clear
4:20 PM 82.4 °F - 51.8 °F 35% 29.95 in - NE 15.0 mph - N/A   Clear
4:50 PM 82.4 °F - 51.8 °F 35% 29.92 in - NNE 18.4 mph - N/A   Clear
5:20 PM 80.6 °F - 51.8 °F 37% 29.92 in - NNE 16.1 mph - N/A   Clear
5:50 PM 80.6 °F - 51.8 °F 37% 29.92 in - NNE 16.1 mph - N/A   Clear
6:20 PM 80.6 °F - 51.8 °F 37% 29.92 in - NE 12.7 mph - N/A   Clear
6:50 PM 78.8 °F - 51.8 °F 39% 29.92 in - NE 12.7 mph - N/A   Clear
7:20 PM 80.6 °F - 50.0 °F 34% 29.92 in - Variable 11.5 mph - N/A   Clear
7:50 PM 78.8 °F - 51.8 °F 39% 29.92 in - NE 10.4 mph - N/A   Clear
8:20 PM 78.8 °F - 53.6 °F 42% 29.92 in - NE 9.2 mph - N/A   Clear
8:50 PM 77.0 °F - 51.8 °F 41% 29.92 in - Variable 8.1 mph - N/A   Clear
9:00 PM 77 °F - 51 °F 29% 29.93 in 6 mi ENE 8.1 mph - -  
9:20 PM 77.0 °F - 51.8 °F 41% 29.92 in - NE 10.4 mph - N/A   Clear
9:50 PM 75.2 °F - 51.8 °F 44% 29.92 in - NE 11.5 mph - N/A   Clear
10:20 PM 73.4 °F - 53.6 °F 50% 29.92 in - NE 13.8 mph - N/A   Clear
10:50 PM 73.4 °F - 53.6 °F 50% 29.92 in - NE 11.5 mph - N/A   Clear
11:20 PM 73.4 °F - 55.4 °F 53% 29.92 in - NE 10.4 mph - N/A   Clear
11:50 PM 73.4 °F - 55.4 °F 53% 29.92 in - NE 9.2 mph - N/A   Clear